Midland City, AL

10:30 AM CST on February 09, 2016 (GMT -0600)
Dothan Regional

Weather History for KDHN - March, 2014

Change the Weather History Date:

Monday, March 31, 2014

  Actual Average Record
Temperature  
Mean Temperature 60 °F 62 °F  
Max Temperature 78 °F 74 °F 87 °F (1954)
Min Temperature 41 °F 49 °F 32 °F (1964)
Degree Days  
Heating Degree Days 5 5  
Month to date heating degree days 266 212  
Since 1 July heating degree days 1931 1770  
Cooling Degree Days 0 1  
Month to date cooling degree days 2 21  
Year to date cooling degree days 11 31  
Growing Degree Days 10 (Base 50)    
Moisture  
Dew Point 37 °F    
Average Humidity 49    
Maximum Humidity 82    
Minimum Humidity 15    
Precipitation  
Precipitation 0.00 in 0.24 in 3.88 in (1962)
Month to date precipitation 5.30 5.88  
Year to date precipitation 13.03 15.28  
Sea Level Pressure  
Sea Level Pressure 30.16 in    
Wind  
Wind Speed 4 mph (SSW)    
Max Wind Speed 8 mph    
Max Gust Speed -    
Visibility 10 miles    
Events      
T = Trace of Precipitation, MM = Missing Value Source: NWS Daily Summary

Daily Weather History Graph

Daily Weather History Graph

Search for Another Location

Airport or City:

Trip Planner

Search our weather history database for the weather conditions in past years. The results will help you decide how hot, cold, wet, or windy it might be!

Date:

Astronomy

Mar. 31, 2014 Rise Set
Actual Time 6:31 AM CDT 7:00 PM CDT
Civil Twilight 6:07 AM CDT 7:24 PM CDT
Nautical Twilight 5:38 AM CDT 7:53 PM CDT
Astronomical Twilight 5:09 AM CDT 8:22 PM CDT
Moon 6:58 AM CDT (3/31) 8:12 PM CDT (3/31)
Length of Visible Light 13h 17m
Length of Day
12h 28m
New Moon, 1% of the Moon is Illuminated
Mar 31
New Moon
Apr 7
First Quarter
Apr 15
Full
Apr 22
Last Quarter
Apr 29
New

Hourly Weather History & Observations

Time (CDT) Temp. Windchill Dew Point Humidity Pressure Visibility Wind Dir Wind Speed Gust Speed Precip Events Conditions
12:53 AM 48.9 °F - 39.0 °F 69% 30.18 in 10.0 mi NW 4.6 mph - N/A   Clear
1:53 AM 46.9 °F - 39.9 °F 77% 30.15 in 10.0 mi North 4.6 mph - N/A   Clear
2:53 AM 45.0 °F 41.8 °F 39.9 °F 82% 30.14 in 10.0 mi North 5.8 mph - N/A   Clear
3:53 AM 46.0 °F 43.9 °F 37.9 °F 73% 30.13 in 10.0 mi NNE 4.6 mph - N/A   Clear
4:53 AM 44.1 °F 42.5 °F 37.0 °F 76% 30.15 in 10.0 mi NW 3.5 mph - N/A   Clear
5:53 AM 43.0 °F 39.5 °F 37.0 °F 80% 30.17 in 10.0 mi NNW 5.8 mph - N/A   Clear
6:53 AM 43.0 °F - 37.0 °F 80% 30.18 in 10.0 mi Calm Calm - N/A   Clear
7:53 AM 48.9 °F - 37.9 °F 66% 30.21 in 10.0 mi Calm Calm - N/A   Clear
8:53 AM 54.0 °F - 39.0 °F 57% 30.22 in 10.0 mi East 3.5 mph - N/A   Clear
9:53 AM 60.1 °F - 39.0 °F 46% 30.22 in 10.0 mi East 3.5 mph - N/A   Clear
10:53 AM 64.0 °F - 37.0 °F 37% 30.22 in 10.0 mi SE 3.5 mph - N/A   Clear
11:53 AM 68.0 °F - 37.9 °F 33% 30.21 in 10.0 mi Variable 4.6 mph - N/A   Clear
12:53 PM 72.0 °F - 37.0 °F 28% 30.19 in 10.0 mi SSE 4.6 mph - N/A   Clear
1:53 PM 75.0 °F - 32.0 °F 21% 30.16 in 10.0 mi SW 8.1 mph - N/A   Clear
2:53 PM 75.9 °F - 25.0 °F 15% 30.14 in 10.0 mi Calm Calm - N/A   Clear
3:53 PM 78.1 °F - 27.0 °F 15% 30.12 in 10.0 mi SSE 3.5 mph - N/A   Clear
4:53 PM 78.1 °F - 28.9 °F 17% 30.11 in 10.0 mi South 4.6 mph - N/A   Clear
5:53 PM 75.9 °F - 32.0 °F 20% 30.11 in 10.0 mi SSW 4.6 mph - N/A   Clear
6:53 PM 73.0 °F - 33.1 °F 23% 30.12 in 10.0 mi SW 3.5 mph - N/A   Clear
7:53 PM 63.0 °F - 39.9 °F 43% 30.13 in 10.0 mi South 3.5 mph - N/A   Clear
8:53 PM 63.0 °F - 42.1 °F 46% 30.14 in 10.0 mi SW 6.9 mph - N/A   Clear
9:53 PM 61.0 °F - 42.1 °F 50% 30.16 in 10.0 mi SW 8.1 mph - N/A   Clear
10:53 PM 57.0 °F - 41.0 °F 55% 30.16 in 10.0 mi SW 6.9 mph - N/A   Clear
11:53 PM 54.0 °F - 41.0 °F 62% 30.16 in 10.0 mi SW 5.8 mph - N/A   Clear